Weather in Kiknur

Russia / Kirov Oblast     57°18′22″N   47°12′18″E
temp.,
°C
wind,
m/s
gust,
m/s
humid.,
%
clouds,
%
prec.,
mm/h
press.,
hPa
HPBL,
m
11 april, sun
sun1100:000w1198100 0.0 102735
03:000nw229589 0.0 102899
06:00−3nnw229854 0.0 102971
09:000w2210093 0.0 1030169
12:00+2w239969 0.0 1030212
15:00+3sw22100100 0.0 1032160
18:00+2sw12100100 0.0 103360
21:00+1ssw2297100 0.0 103459
12 april, mon
mon1200:00+1sw12100100 0.0 103673
03:00+1n2299100 0.0 103781
06:00+1ene2499100 0.0 1038134
09:00+3ene3599100 0.0 1039209
12:00+4e3496100 0.0 1039312
15:00+5e4596100 0.0 1039340
18:00+4e4797100 0.0 1039289
21:00+3ese4896100 0.0 1039248
13 april, tue
tue1300:00+2ese41099100 0.0 1037174
03:00+3ese3995100 0.0 1036169
06:00+3se3894100 0.0 1035149
09:00+8sse4786100 0.0 1034247
12:00+13s5775100 0.0 1033513
15:00+16s5769100 0.0 1031775
18:00+13sse368189 0.0 1030112
21:00+10s488957 0.0 1030128
14 april, wed
wed1400:00+8s488935 0.0 1029133
03:00+7ssw358571 0.0 102965
06:00+6s358049 0.0 102985
09:00+12ssw455986 0.0 1028299
12:00+16ssw564465 0.0 1027836
15:00+17ssw564063 0.0 10251166
18:00+14s345683 0.0 102461
21:00+10s4965100 0.0 1024130
15 april, thu
thu1500:00+8ssw347265 0.0 102363
03:00+7s3475100 0.0 102258
06:00+7s347869 0.0 102269
09:00+12ssw355980 0.0 1021335
12:00+16ssw4544100 0.0 10191002
15:00+17sw343776 0.0 10181532
18:00+14sw2249100 0.0 101711
21:00+11sw22607 0.0 101611